Location: Anciles
(42.5833°N, 0.5167°E)
Time: 20:04:56
(UTC+00:00)

COSMO-SKYMED 1 - Pass Details

Date: 10 December 2019
Orbit: 621 x 623 km, 97.9° (Epoch: 21 January)

Event Time Altitude Azimuth Distance (km) Brightness Sun altitude
Exits shadow 17:29:18 10° 32° (NNE) 2,004 4.7 -11.6°
Reaches altitude 10° 17:29:18 10° 32° (NNE) 2,001 4.7 -11.6°
Maximum altitude 17:33:15 33° 97° (E) 1,056 3.3 -12.2°
Drops below altitude 10° 17:37:09 10° 161° (SSE) 1,986 5.2 -12.9°
Sets 17:39:30 0° 171° (S) 2,886 6.1 -13.3°
